Regional Weather Roundup
Issued by NWS

Home | Current Version | Previous Version | Text Only | Print | Product List | Glossary Off
Versions: 1 2 3 4 5 6 7 8 9 10 11 12 13 14 15 16 17 18 19 20 21 22 23 24 25 26 27 28 29 30 31 32 33 34 35 36 37 38 39 40 41 42 43 44 45 46 47 48 49 50

000
ASUS45 KTFX 290219
RWRMT
MONTANA HOURLY WEATHER ROUNDUP
NATIONAL WEATHER SERVICE GREAT FALLS MT
719 PM MST WED JAN 28 2015

NOTE: "FAIR" INDICATES FEW OR NO CLOUDS BELOW 12000 FEET WITH NO
SIGNIFICANT WEATHER AND/OR OBSTRUCTIONS TO VISIBILITY.

* THESE STATIONS ARE NOT UNDER NWS QUALITY CONTROL. THEY DO NOT
   REPORT WEATHER SUCH AS PRECIPITATION OR FOG.

MTZ001>007-043-290300-
WEST OF THE DIVIDE
CITY           SKY/WX    TMP DP  RH WIND       PRES   REMARKS
KALISPELL      CLEAR     25  25 100 CALM      30.37R
MISSOULA       PTCLDY    37  28  70 NW7       30.38R WCI  32
BUTTE          CLEAR     36  21  54 NW3       30.34R
MULLAN PASS    MOCLDY    28  25  89 SW3       30.34R
* ANACONDA     CLEAR     30  23  75 SW6        N/A   WCI  24
* ESSEX        N/A       31  28  89 N/A        N/A
* EUREKA APT   CLEAR     36  27  70 CALM      30.39R
* HAMILTON APT CLEAR     34  25  70 SE6       30.36R WCI  29
* LIBBY APT    CLEAR     27  27 100 CALM      30.42R VSB M1/4
* LINCOLN      N/A       37  21  52 S3         N/A
* LOOKOUT PASS N/A       34  29  82 VRB1       N/A
* POLSON       N/A       34  26  73 SE2        N/A
* RONAN APT    CLEAR     36  36 100 E5         N/A   WCI  32
* SEELEY LAKE  N/A       34  23  64 SE2        N/A
* THOMP F APT  CLEAR     30  29  96 SW2        N/A
* YAAK HILL    N/A       36  32  85 NE1        N/A
$$

MTZ008-052>055-290300-
SOUTHWEST MONTANA
CITY           SKY/WX    TMP DP  RH WIND       PRES   REMARKS
BOZEMAN        PTCLDY    36  25  64 NW7       30.33R WCI  30
DILLON         FAIR      34  21  59 VRB3      30.30R
* W YELLOWSTON CLEAR     31  29  92 SW3        N/A
* THREE FORKS  CLEAR     37  27  67 N/A        N/A
* BOULDER HILL N/A       31  15  51 N1         N/A
* MONIDA PASS  N/A       23  23 100 SE10       N/A   WCI  13
* RAYNOLDS PAS N/A       30  13  49 SE13       N/A   WCI  20
* WHITEHALL    N/A       38  21  50 N4G9       N/A
* WISE RIVER   N/A       36  19  50 W6         N/A   WCI  31
$$

MTZ009>010-012-014-046-048-049-054-290300-
EAST SLOPES AND CENTRAL MONTANA
CITY           SKY/WX    TMP DP  RH WIND       PRES   REMARKS
CUT BANK       CLEAR     28  27  96 SE6       30.33S WCI  21
GREAT FALLS    CLOUDY    36  30  79 E3        30.34R
HELENA         MOCLDY    39  21  48 W5        30.34R WCI  35
MALMSTROM AFB  MOCLDY    36  34  92 N5        30.36R WCI  32
* CONRAD       CLEAR     34  30  85 CALM       N/A
* DEARBORN     N/A       43  32  65 N7         N/A
* EAST GLACIER N/A       32  22  67 W9         N/A   WCI  24
* MONARCH      N/A       33  23  67 S1         N/A
* PENDROY      N/A       29  29 100 SE1        N/A
* ROGERS PASS  N/A       31  25  78 NW3        N/A
* SWEET GRASS  N/A       35  31  85 S4         N/A
* WHITE SULPH  N/A       36  26  67 NW5G11     N/A   WCI  32
$$

MTZ011-013-016-021-035-040-045-047-050-051-290300-
NORTH CENTRAL MONTANA
CITY           SKY/WX    TMP DP  RH WIND       PRES   REMARKS
HAVRE          FOG       27  25  92 CALM      30.37R
LEWISTOWN      MOCLDY    34  28  79 SW8       30.34R WCI  27
* N BAR RANCH  MOCLDY    32  25  75 NW5       30.34R WCI  27
* CHINOOK      CLEAR     30  28  92 W6        30.36R WCI  24
* CHESTER      N/A       31  28  89 N/A        N/A
* DENTON       N/A       30  29  96 SW4        N/A
* GEYSER       N/A       32  29  89 SE2        N/A
* JUDITH GAP   N/A       34  32  92 N16        N/A   WCI  24
* LOMA         N/A       33  30  89 NE2        N/A
$$

MTZ017>020-022>027-061-062-290300-
NORTHEAST MONTANA
CITY           SKY/WX    TMP DP  RH WIND       PRES   REMARKS
GLASGOW        PTCLDY    34  27  76 NW14      30.31R WCI  24
GLENDIVE       CLOUDY    34  27  76 NW12G20   30.29R WCI  25
JORDAN         CLEAR     30  28  92 W9        30.32R WCI  22
SIDNEY         CLOUDY    36  28  73 NW10      30.29R WCI  29
WOLF POINT     CLOUDY    37  27  67 NW22G29   30.30R WCI  26
* BEAVER HILL  N/A       32  27  82 NW17G26    N/A   WCI  21
* CIRCLE       N/A       31  29  92 W4         N/A
* LINDSAY DVD  N/A       30  28  92 NW15G20    N/A   WCI  19
* NAVAJO       N/A       32  26  79 NW23G34    N/A   WCI  19
* PLENTYWOOD A CLEAR     34  28  79 NW25G31   30.21R WCI  21
* POPLAR APT   CLEAR     36  28  73 N/A       30.28R
* SACO         N/A       33  28  82 NW12       N/A   WCI  24
* SCOBEY APT   PTCLDY    34  25  70 NW22       N/A   WCI  22
$$

MTZ028>042-056>058-290300-
SOUTHCENTRAL AND SOUTHEAST MONTANA
CITY           SKY/WX    TMP DP  RH WIND       PRES   REMARKS
BAKER          CLOUDY    32  27  82 NW23G30   30.27R WCI  19
BILLINGS       PTCLDY    39  27  62 NE5       30.34R WCI  35
LIVINGSTON     CLOUDY    39  25  57 VRB3      30.33R
MILES CITY     PTCLDY    32  28  85 NW10      30.32R WCI  24
* BIG TIMBER A PTCLDY    39  27  62 NE6       30.35R WCI  35
* FORSYTH APT  MOCLDY    36  30  79 W7        30.34R WCI  30
* LAUREL APT   PTCLDY    39  21  48 N/A        N/A
* ROUNDUP APT  PTCLDY    39  25  57 N/A        N/A
* ALZADA       N/A       32  28  85 W11        N/A   WCI  23
* HYSHAM       N/A       37  28  70 E1         N/A
* LAME DEER    N/A       32  27  82 NW6G13     N/A   WCI  26
* REED POINT   N/A       43  23  45 NE8G13     N/A
* ROSCOE HILL  N/A       38  20  48 SW2        N/A
$$

REGIONAL REPORTS...DAKOTAS
CITY           SKY/WX    TMP DP  RH WIND       PRES   REMARKS
WILLISTON      CLOUDY    34  28  79 NW13      30.23R WCI  25
DICKINSON      CLOUDY    32  27  82 NW30G41   30.18R WCI  18
BEACH          CLOUDY    32  32 100 NW18G26   30.25R WCI  21
CROSBY         CLOUDY    32  32 100 NW17G32   30.21R WCI  21
TIOGA          CLOUDY    30  30 100 NW23G36   30.21R WCI  17
WATFORD CITY   CLOUDY    32  28  85 NW16G26   30.20R WCI  21
BISMARCK       CLOUDY    32  27  82 NW20G33   30.13R WCI  20
GRAND FORKS    CLOUDY    28  25  89 NW23G31   29.98R WCI  14
FARGO          CLOUDY    34  30  85 N24G31    29.93R WCI  22
BUFFALO SD     PTCLDY    34  27  76 NW29G37   30.15R WCI  20
RAPID CITY     PTCLDY    36  28  73 N35G45    30.17R WCI  22
$$

REGIONAL REPORTS...WYOMING/IDAHO/WASHINGTON
CITY           SKY/WX    TMP DP  RH WIND       PRES   REMARKS
GILLETTE       CLOUDY    36  28  73 NW13      30.28R WCI  27
SHERIDAN       CLOUDY    41  30  65 NW13      30.32R
CODY           CLOUDY    41  27  58 NW9       30.30R
YELLOWSTONE LA PTCLDY    23  21  92 CALM      30.35R
SALMON         CLEAR     27  21  78 SE6       30.36R WCI  20
MULLAN PASS    MOCLDY    28  25  89 SW3       30.34S
SAND POINT     FOG       34  34 100 CALM      30.43R VSB 3
SPOKANE        FOG       34  34 100 N6        30.40R WCI  29
$$

REGIONAL REPORTS...ALBERTA
CITY           SKY/WX    TMP DP  RH WIND       PRES   REMARKS
CALGARY        FAIR      32  27  82 S5        30.30R WCI  27
LETHBRIDGE     FAIR      30  27  89 SE9       30.32S WCI  22
MEDICINE HAT   N/A       30  28  92 S2        30.36R
EDMONTON       CLOUDY    25  23  92 E6        30.34R WCI  18
WATERTON GATE  N/A       37  27  67 SW14G20    N/A   WCI  28
CARDSTON       N/A       34  27  76 SW3        N/A
MILK RIVER     N/A       27  25  92 SW2        N/A
$$

REGIONAL REPORTS...SASKATCHEWAN
CITY           SKY/WX    TMP DP  RH WIND       PRES   REMARKS
SWIFT CURRENT  CLEAR     27  25  92 NW13      30.30R WCI  16
REGINA         CLOUDY    25  23  92 N16       30.25R WCI  12
VAL MARIE      N/A       28  27  96 NW6        N/A   WCI  21
ASSINIBOIA     N/A       28  25  89 NW20G26    N/A   WCI  15
CORONACH       N/A       30  25  82 NW22G28    N/A   WCI  17

$$



USA.gov is the U.S. government's official web portal to all federal, state and local government web resources and services.